sat.trackr.live / text

‹ back to catalog

STARLINK-6259

NORAD 57089 · 2023-088AT

PAYLOAD ACTIVE UNKNOWN

§ Identity

Operator
Country
US
Launch date
2023-06-22
Launch site
AFWTR
Launch vehicle
Mass (kg)
RCS (m²)

Purposes: comms

External: N2YO · Heavens-Above · Gunter

§ Orbital elements

Epoch: 2026-09-20T21:08:59.170560Z

Period
94.27 min
Inclination
43.0007°
Eccentricity
0.0001016
Mean motion
15.27575843 rev/d
Perigee alt
482.4 km
Apogee alt
483.8 km
Semi-major
6,861.2 km
B*
1.2234e-5
RAAN
73.6748°
Arg perigee
276.7278°
Mean anomaly
83.3458°
Rev number
18,035

§ Raw data

STARLINK-62591 57089U 23088AT  26263.88124040  .00000075  00000+0  12234-4 0  99932 57089  43.0007  73.6748 0001016 276.7278  83.3458 15.27575843180352

JSON: /api/v1/satellites/57089 · /tle

For live sub-satellite position, see the globe view (requires WebGL).

§ Visibility from observer

Set your observer location to see the next 7 days of passes ≥ 10°. The values pass through the URL so the page stays shareable.

No JS? Fill the form by hand. The geolocation button needs JavaScript.